This is the latest recevied weather packets stored in our database for station/object KG7BDA. If no packets are shown the sender has not sent any weather packets the latest 10 day(s).
| Time | Temp. | Humidity | Pressure | Rain* | Wind** | Luminosity | Snow |
|---|---|---|---|---|---|---|---|
| 1777424952 | 16.11° C | 32% | 1019 hPa | 0 mm | - | - | - |
| 1777424592 | 16.11° C | 30% | 1019.1 hPa | 0 mm | - | - | - |
| 1777424231 | 16.11° C | 31% | 1019.1 hPa | 0 mm | - | - | - |
| 1777423872 | 16.11° C | 30% | 1019.2 hPa | 0 mm | - | - | - |
| 1777423152 | 16.11° C | 30% | 1019.1 hPa | 0 mm | - | - | - |
| 1777422792 | 16.11° C | 31% | 1019.1 hPa | 0 mm | - | - | - |
| 1777422432 | 16.11° C | 31% | 1019.1 hPa | 0 mm | - | - | - |
| 1777422072 | 16.11° C | 31% | 1019.1 hPa | 0 mm | - | - | - |
| 1777421712 | 16.11° C | 33% | 1019.1 hPa | 0 mm | - | - | - |
| 1777421351 | 16.11° C | 32% | 1019.1 hPa | 0 mm | - | - | - |
| 1777420992 | 16.11° C | 32% | 1019.2 hPa | 0 mm | - | - | - |
| 1777420632 | 16.11° C | 32% | 1019.1 hPa | 0 mm | - | - | - |
| 1777420272 | 16.11° C | 32% | 1019.1 hPa | 0 mm | - | - | - |
| 1777419912 | 16.11° C | 31% | 1019.1 hPa | 0 mm | - | - | - |
| 1777419552 | 15.56° C | 31% | 1019 hPa | 0 mm | - | - | - |
| 1777419192 | 15.56° C | 32% | 1019.2 hPa | 0 mm | - | - | - |
| 1777418832 | 16.11° C | 32% | 1019.2 hPa | 0 mm | - | - | - |
| 1777418471 | 15.56° C | 31% | 1019.2 hPa | 0 mm | - | - | - |
| 1777418112 | 15.56° C | 31% | 1019.3 hPa | 0 mm | - | - | - |
| 1777417752 | 16.11° C | 31% | 1019.2 hPa | 0 mm | - | - | - |
| 1777417392 | 16.11° C | 34% | 1019.2 hPa | 0 mm | - | - | - |
| 1777417032 | 15.56° C | 31% | 1019.3 hPa | 0 mm | - | - | - |
| 1777416671 | 15.56° C | 31% | 1019.4 hPa | 0 mm | - | - | - |
| 1777416311 | 16.11° C | 31% | 1019.6 hPa | 0 mm | - | - | - |
| 1777415951 | 15.56° C | 31% | 1019.5 hPa | 0 mm | - | - | - |
* Rain latest hour (hover to see other rain measurements)
** Current wind speed in m/s (hover to see current wind gust speed)